This demonstration page uses our WeatherBlox Daily Observations layout. Learn more.

Left ArrowRight Arrow

36.17497, -115.13722

Hourly Observations for August 2, 2019

Temp ( °F °C ) Dew Point ( °F °C ) Humidity (%) Winds ( mph kmh ) Pressure ( in mb ) Visibility ( mi km ) Precip ( " mm )
12:53 am 00:53 Clear 89 31.7 35 1.7 15 15 N 5 7 29.88 1012 10 16 0.00 0.00
1:53 am 01:53 Clear 85 29.4 37 2.8 18 18 VRB 6 9 29.87 1012 10 16 0.00 0.00
2:53 am 02:53 Clear 85 29.4 41 5 21 21 S 3 6 29.88 1012 10 16 0.00 0.00
3:53 am 03:53 Clear 82 27.8 41 5 23 23 NW 3 6 29.88 1012 10 16 0.00 0.00
4:53 am 04:53 Clear 83 28.3 39 3.9 21 21 Calm 29.89 1012 10 16 0.00 0.00
5:53 am 05:53 Sunny 81 27.2 42 5.6 25 25 Calm 29.92 1013 10 16 0.00 0.00
6:53 am 06:53 Sunny 85 29.4 37 2.8 18 18 NW 9 15 29.93 1014 10 16 0.00 0.00
7:53 am 07:53 Sunny 88 31.1 36 2.2 16 16 N 5 7 29.95 1014 10 16 0.00 0.00
8:53 am 08:53 Sunny 92 33.3 36 2.2 14 14 N 6 9 29.95 1014 10 16 0.00 0.00
9:53 am 09:53 Sunny 96 35.6 36 2.2 12 12 NNE 5 7 29.95 1014 10 16 0.00 0.00
10:53 am 10:53 Sunny 97 36.1 38 3.3 13 13 SE 3 6 29.93 1014 10 16 0.00 0.00
11:53 am 11:53 Sunny 100 37.8 39 3.9 12 12 SSE 5 7 29.92 1013 10 16 0.00 0.00
12:53 pm 12:53 Sunny 101 38.3 41 5 13 13 VRB 3 6 29.91 1013 10 16 0.00 0.00
1:53 pm 13:53 Sunny 104 40 41 5 12 12 SSE 9 15 29.89 1012 10 16 0.00 0.00
2:53 pm 14:53 Sunny 105 40.6 41 5 11 11 SSE 10 17 29.85 1011 10 16 0.00 0.00
3:53 pm 15:53 Sunny 107 41.7 40 4.4 10 10 NE 5 7 29.83 1010 10 16 0.00 0.00
4:53 pm 16:53 Sunny 105 40.6 39 3.9 10 10 S 9 15 29.81 1010 10 16 0.00 0.00
5:53 pm 17:53 Sunny 105 40.6 39 3.9 10 10 VRB 3 6 29.79 1009 10 16 0.00 0.00
6:53 pm 18:53 Sunny 104 40 38 3.3 10 10 WSW 7 11 29.78 1009 10 16 0.00 0.00
7:53 pm 19:53 Clear 102 38.9 39 3.9 11 11 W 8 13 29.80 1009 10 16 0.00 0.00
8:53 pm 20:53 Clear 100 37.8 39 3.9 12 12 WSW 8 13 29.82 1010 10 16 0.00 0.00
9:53 pm 21:53 Clear 99 37.2 39 3.9 12 12 W 8 13 29.83 1010 10 16 0.00 0.00
10:53 pm 22:53 Clear 95 35 40 4.4 15 15 Calm 29.84 1011 10 16 0.00 0.00
11:53 pm 23:53 Clear 95 35 38 3.3 14 14 WNW 7 11 29.84 1011 10 16 0.00 0.00

Powered by AerisWeather